Simultaneous Nadir Overpasses (SNOs) Predictions

Prediction of SNOs between METOP-B and NOAA-19 Satellite Orbit:

Table of predicted SNOs for the next 14.0 days since TLE Epoch: 11/18/2023
Index Date (METOP-B) Time (METOP-B) Lat,Lon (METOP-B) SZA (METOP-B ) Date (NOAA-19) Time (NOAA-19) Lat,Lon (NOAA-19) SZA (NOAA-19 ) Distance(km) Time Diff (sec)
1 11/21/2023 08:23:23 80.66, 83.13 101.90 11/21/2023 08:22:15 80.65, 83.00 101.86 2.70 68
2 11/21/2023 09:14:04 -80.66,-109.52 78.10 11/21/2023 09:13:09 -80.66,-109.55 78.12 0.62 55
3 11/21/2023 10:04:44 80.67, 57.97 101.94 11/21/2023 10:04:12 80.68, 58.08 101.94 2.08 32
4 11/21/2023 10:55:25 -80.68,-134.69 78.06 11/21/2023 10:55:07 -80.67,-134.82 78.08 2.42 18
5 11/21/2023 11:46:05 80.69, 32.80 101.98 11/21/2023 11:46:10 80.69, 32.82 101.98 0.23 5
6 11/21/2023 12:36:46 -80.69,-159.85 78.02 11/21/2023 12:37:04 -80.69,-159.73 77.99 2.34 18
7 11/21/2023 13:27:26 80.70, 7.64 102.02 11/21/2023 13:28:08 80.70, 7.55 102.03 1.63 42



Historial Predications of SNOs between METOP-B and NOAA-19
